Haleyville, AL

6:10 PM CDT on August 27, 2016 (GMT -0500)
Haleyville

Weather History for K1M4 - October, 2014

Change the Weather History Date:

Tuesday, October 14, 2014

  Actual Average (KJFX) Record (KJFX)
Temperature  
Mean Temperature 59 °F -  
Max Temperature 64 °F 76 °F 93 °F (2011)
Min Temperature 54 °F 46 °F 30 °F (1977)
Degree Days  
Heating Degree Days 6    
Growing Degree Days 9 (Base 50)    
Moisture  
Dew Point 58 °F    
Average Humidity 93    
Maximum Humidity 100    
Minimum Humidity 70    
Precipitation  
Precipitation 0.55 in - - ()
Sea Level Pressure  
Sea Level Pressure 29.81 in    
Wind  
Wind Speed 10 mph (SW)    
Max Wind Speed 17 mph    
Max Gust Speed 26 mph    
Visibility 6 miles    
Events Rain    
Averages and records for this station are not official NWS values.
T = Trace of Precipitation, MM = Missing Value Source: NWS Daily Summary

Daily Weather History Graph

Daily Weather History Graph

Search for Another Location

Airport or City:

Trip Planner

Search our weather history database for the weather conditions in past years. The results will help you decide how hot, cold, wet, or windy it might be!

Date:

Astronomy

Oct. 14, 2014 Rise Set
Actual Time 6:54 AM CDT 6:17 PM CDT
Civil Twilight 6:29 AM CDT 6:42 PM CDT
Nautical Twilight 6:00 AM CDT 7:11 PM CDT
Astronomical Twilight 5:31 AM CDT 7:40 PM CDT
Moon 11:29 PM CDT (10/14) 12:47 PM CDT (10/14)
Length of Visible Light 12h 12m
Length of Day
11h 22m
Waning Gibbous, 61% of the Moon is Illuminated
Oct 14
Waning Gibbous
Oct 15
Last Quarter
Oct 23
New
Oct 30
First Quarter
Nov 6
Full

Hourly Weather History & Observations

Time (CDT) Temp. Dew Point Humidity Pressure Visibility Wind Dir Wind Speed Gust Speed Precip Events Conditions
12:56 AM 64.9 °F 64.9 °F 100% 29.79 in 1.8 mi Variable 6.9 mph - 0.07 in Rain Heavy Rain
1:01 AM 64.4 °F 64.4 °F 100% 29.75 in 1.2 mi SSE 6.9 mph - 0.02 in Rain Heavy Rain
1:08 AM 64.4 °F 64.4 °F 100% 29.75 in 1.8 mi SSE 10.4 mph - 0.05 in Rain Heavy Rain
1:24 AM 64.4 °F 64.4 °F 100% 29.74 in 3.0 mi SE 9.2 mph - 0.08 in Rain Light Rain
1:31 AM 64.4 °F 64.4 °F 100% 29.74 in 3.0 mi SSE 11.5 mph - 0.10 in Rain Heavy Rain
1:45 AM 64.4 °F 64.4 °F 100% 29.72 in 3.0 mi SE 11.5 mph - 0.12 in Rain Light Rain
1:56 AM 64.9 °F 64.9 °F 100% 29.78 in 4.0 mi SSE 11.5 mph 19.6 mph 0.12 in Rain Light Rain
2:13 AM 64.4 °F 64.4 °F 100% 29.73 in 1.8 mi SSE 11.5 mph 20.7 mph 0.03 in Rain Rain
2:26 AM 64.4 °F 64.4 °F 100% 29.72 in 2.0 mi South 13.8 mph 19.6 mph 0.07 in Rain Rain
2:30 AM 64.4 °F 64.4 °F 100% 29.72 in 3.0 mi SSE 11.5 mph 19.6 mph 0.07 in Rain Light Rain
2:37 AM 64.4 °F 64.4 °F 100% 29.72 in 7.0 mi SSE 10.4 mph 23.0 mph 0.08 in Rain Light Rain
2:45 AM 64.4 °F 64.4 °F 100% 29.71 in 10.0 mi South 11.5 mph - 0.08 in Rain Light Rain
2:56 AM 64.9 °F 64.9 °F 100% 29.75 in 3.0 mi SSE 13.8 mph - 0.08 in   Overcast
3:01 AM 64.4 °F 64.4 °F 100% 29.71 in 1.8 mi SSE 11.5 mph - 0.01 in Rain Light Rain
3:09 AM 64.4 °F 64.4 °F 100% 29.71 in 1.2 mi South 10.4 mph - 0.03 in Rain Heavy Rain
3:19 AM 64.4 °F 64.4 °F 100% 29.72 in 2.0 mi SW 11.5 mph - 0.05 in Rain Rain
3:27 AM 64.4 °F 64.4 °F 100% 29.70 in 1.5 mi WSW 17.3 mph 23.0 mph 0.08 in Rain Heavy Rain
3:40 AM 62.6 °F 62.6 °F 100% 29.73 in 2.5 mi West 11.5 mph 19.6 mph 0.09 in Rain Rain
3:47 AM 60.8 °F 60.8 °F 100% 29.73 in 4.0 mi West 10.4 mph 20.7 mph 0.09 in Rain Light Rain
3:56 AM 59.9 °F 59.9 °F 100% 29.77 in 5.0 mi WSW 9.2 mph 19.6 mph 0.09 in Rain Light Rain
4:56 AM 59.9 °F 59.0 °F 97% 29.77 in 10.0 mi WSW 8.1 mph - 0.03 in   Overcast
5:31 AM 59.0 °F 59.0 °F 100% 29.73 in 10.0 mi WSW 11.5 mph - N/A   Mostly Cloudy
5:40 AM 59.0 °F 57.2 °F 94% 29.74 in 10.0 mi WSW 11.5 mph 17.3 mph N/A   Overcast
5:56 AM 59.0 °F 57.9 °F 96% 29.78 in 10.0 mi WSW 12.7 mph 18.4 mph N/A   Overcast
6:18 AM 57.2 °F 57.2 °F 100% 29.75 in 10.0 mi WSW 9.2 mph 18.4 mph N/A   Mostly Cloudy
6:45 AM 57.2 °F 55.4 °F 94% 29.75 in 10.0 mi SW 9.2 mph - N/A   Scattered Clouds
6:56 AM 57.9 °F 55.9 °F 93% 29.80 in 10.0 mi SW 10.4 mph - N/A   Mostly Cloudy
7:13 AM 57.2 °F 55.4 °F 94% 29.77 in 10.0 mi SW 11.5 mph - N/A   Mostly Cloudy
7:56 AM 56.8 °F 54.9 °F 93% 29.83 in 10.0 mi SW 13.8 mph 26.5 mph N/A   Overcast
8:36 AM 57.2 °F 55.4 °F 94% 29.80 in 10.0 mi SW 11.5 mph 18.4 mph N/A   Mostly Cloudy
8:56 AM 57.9 °F 54.9 °F 90% 29.85 in 10.0 mi SW 10.4 mph 17.3 mph N/A   Mostly Cloudy
9:26 AM 57.2 °F 55.4 °F 94% 29.81 in 2.5 mi WSW 11.5 mph 17.3 mph 0.00 in Rain Light Rain
9:30 AM 57.2 °F 55.4 °F 94% 29.81 in 1.2 mi WSW 9.2 mph 17.3 mph 0.00 in Rain Light Rain
9:35 AM 55.4 °F 55.4 °F 100% 29.81 in 1.0 mi WSW 9.2 mph - 0.00 in Rain Light Rain
9:38 AM 55.4 °F 55.4 °F 100% 29.81 in 1.2 mi WSW 8.1 mph - 0.00 in Rain Light Rain
9:43 AM 55.4 °F 55.4 °F 100% 29.82 in 2.0 mi WSW 9.2 mph - 0.00 in Rain Light Rain
9:56 AM 56.8 °F 55.9 °F 97% 29.86 in 5.0 mi WSW 9.2 mph - 0.00 in Rain Light Rain
10:11 AM 55.4 °F 55.4 °F 100% 29.82 in 4.0 mi WSW 8.1 mph - 0.00 in Rain Light Rain
10:41 AM 57.2 °F 55.4 °F 94% 29.83 in 10.0 mi SW 8.1 mph - 0.01 in   Mostly Cloudy
10:56 AM 59.9 °F 56.8 °F 90% 29.87 in 10.0 mi SW 9.2 mph - 0.01 in   Mostly Cloudy
11:03 AM 60.8 °F 55.4 °F 82% 29.83 in 10.0 mi SW 6.9 mph - N/A   Mostly Cloudy
11:13 AM 59.0 °F 55.4 °F 88% 29.83 in 10.0 mi SW 13.8 mph 19.6 mph N/A   Mostly Cloudy
11:44 AM 60.8 °F 55.4 °F 82% 29.82 in 10.0 mi WSW 10.4 mph 20.7 mph N/A   Mostly Cloudy
11:56 AM 59.9 °F 54.0 °F 81% 29.86 in 10.0 mi WSW 11.5 mph 19.6 mph N/A   Mostly Cloudy
12:03 PM 60.8 °F 55.4 °F 82% 29.82 in 10.0 mi WSW 10.4 mph - N/A   Mostly Cloudy
12:19 PM 60.8 °F 53.6 °F 77% 29.82 in 10.0 mi SW 15.0 mph 21.9 mph 0.00 in Rain Light Rain
12:56 PM 61.0 °F 54.9 °F 80% 29.86 in 10.0 mi WSW 11.5 mph 24.2 mph 0.00 in Rain Light Rain
1:05 PM 62.6 °F 55.4 °F 77% 29.82 in 10.0 mi SW 16.1 mph - 0.00 in   Mostly Cloudy
1:16 PM 62.6 °F 53.6 °F 72% 29.82 in 10.0 mi SW 13.8 mph 19.6 mph 0.00 in   Mostly Cloudy
1:36 PM 62.6 °F 53.6 °F 72% 29.81 in 10.0 mi SW 10.4 mph 18.4 mph 0.00 in   Mostly Cloudy
1:56 PM 61.9 °F 52.0 °F 70% 29.86 in 10.0 mi SW 17.3 mph 23.0 mph 0.00 in   Overcast
2:56 PM 63.0 °F 54.0 °F 72% 29.86 in 10.0 mi SW 10.4 mph 19.6 mph N/A   Mostly Cloudy
3:56 PM 61.0 °F 52.0 °F 72% 29.88 in 10.0 mi WSW 10.4 mph 18.4 mph N/A   Mostly Cloudy
7:56 PM 55.9 °F 52.9 °F 89% 29.95 in 10.0 mi SW 9.2 mph - N/A   Scattered Clouds
8:56 PM 55.9 °F 54.0 °F 93% 29.96 in 10.0 mi SW 9.2 mph - 0.00 in Rain Light Rain
9:06 PM 55.4 °F 53.6 °F 94% 29.93 in 3.0 mi SW 8.1 mph - 0.02 in Rain Heavy Rain
9:12 PM 55.4 °F 53.6 °F 94% 29.93 in 2.0 mi SW 8.1 mph - 0.04 in Rain Heavy Rain
9:14 PM 55.4 °F 53.6 °F 94% 29.93 in 1.8 mi WSW 6.9 mph - 0.05 in Rain Heavy Rain
9:19 PM 55.4 °F 55.4 °F 100% 29.94 in 2.0 mi Calm Calm - 0.08 in Rain Heavy Rain
9:28 PM 55.4 °F 55.4 °F 100% 29.93 in 2.0 mi WSW 4.6 mph - 0.13 in Rain Heavy Rain
9:41 PM 55.4 °F 55.4 °F 100% 29.94 in 3.0 mi Calm Calm - 0.15 in Rain Rain
9:56 PM 54.9 °F 54.9 °F 100% 29.98 in 4.0 mi West 8.1 mph - 0.15 in Rain Light Rain
10:04 PM 55.4 °F 55.4 °F 100% 29.94 in 8.0 mi West 5.8 mph - 0.00 in Rain Light Rain
10:56 PM 54.0 °F 52.9 °F 96% 29.98 in 10.0 mi Calm Calm - 0.00 in   Partly Cloudy
11:56 PM 54.0 °F 52.9 °F 96% 29.97 in 10.0 mi SW 3.5 mph - N/A   Partly Cloudy